TimeCDT,TemperatureF,Dew PointF,Humidity,Sea Level PressureIn,VisibilityMPH,Wind Direction,Wind SpeedMPH,Gust SpeedMPH,PrecipitationIn,Events,Conditions,WindDirDegrees,DateUTC
12:15 AM,62.6,55.9,79,30.16,10.0,Calm,Calm,-,N/A,,Clear,0,2013-07-30 05:15:00
12:35 AM,61.7,55.6,80,30.16,10.0,East,5.8,-,N/A,,Clear,100,2013-07-30 05:35:00
12:55 AM,60.8,55.6,83,30.17,10.0,East,5.8,-,N/A,,Clear,90,2013-07-30 05:55:00
1:15 AM,60.8,55.9,84,30.17,10.0,East,5.8,-,N/A,,Clear,90,2013-07-30 06:15:00
1:35 AM,60.4,56.3,86,30.17,10.0,East,5.8,-,N/A,,Clear,100,2013-07-30 06:35:00
1:55 AM,60.8,56.7,86,30.16,10.0,East,5.8,-,N/A,,Clear,100,2013-07-30 06:55:00
2:15 AM,61.2,57.6,88,30.16,10.0,East,6.9,-,N/A,,Scattered Clouds,100,2013-07-30 07:15:00
2:35 AM,61.5,58.1,89,30.15,10.0,ESE,8.1,-,N/A,,Overcast,110,2013-07-30 07:35:00
2:55 AM,61.7,57.7,87,30.15,10.0,ESE,6.9,-,N/A,,Mostly Cloudy,110,2013-07-30 07:55:00
3:15 AM,62.1,57.6,85,30.16,10.0,East,6.9,-,N/A,,Mostly Cloudy,100,2013-07-30 08:15:00
3:35 AM,62.6,57.4,83,30.16,10.0,ESE,8.1,-,N/A,,Overcast,120,2013-07-30 08:35:00
3:55 AM,62.6,57.2,82,30.15,10.0,ESE,8.1,-,N/A,,Overcast,120,2013-07-30 08:55:00
4:15 AM,62.8,57.2,82,30.15,10.0,ESE,6.9,-,N/A,,Overcast,120,2013-07-30 09:15:00
4:35 AM,62.6,56.8,81,30.15,10.0,SE,6.9,-,N/A,,Overcast,130,2013-07-30 09:35:00
4:55 AM,62.6,56.8,81,30.15,10.0,SE,5.8,-,N/A,,Mostly Cloudy,130,2013-07-30 09:55:00
5:15 AM,62.6,56.7,81,30.16,10.0,East,3.5,-,N/A,,Mostly Cloudy,80,2013-07-30 10:15:00
5:35 AM,62.6,57.0,82,30.16,10.0,ESE,3.5,-,N/A,,Overcast,110,2013-07-30 10:35:00
5:55 AM,62.6,57.0,82,30.16,10.0,Calm,Calm,-,N/A,,Overcast,0,2013-07-30 10:55:00
6:15 AM,62.6,56.8,81,30.16,10.0,East,4.6,-,N/A,,Overcast,80,2013-07-30 11:15:00
6:35 AM,62.8,57.4,82,30.16,10.0,East,4.6,-,N/A,,Overcast,80,2013-07-30 11:35:00
1:35 PM,-9999,-9999,N/A,30.11,10.0,East,8.1,-,N/A,,Overcast,100,2013-07-30 18:35:00
1:55 PM,67.1,64.2,90,30.11,10.0,East,9.2,-,N/A,,Overcast,100,2013-07-30 18:55:00
2:15 PM,67.5,63.9,88,30.11,10.0,East,9.2,-,N/A,,Overcast,100,2013-07-30 19:15:00
2:35 PM,67.1,63.7,89,30.10,4.0,East,5.8,-,N/A,,Overcast,100,2013-07-30 19:35:00
2:55 PM,67.1,64.4,91,30.09,3.0,East,8.1,-,N/A,,Light Drizzle,100,2013-07-30 19:55:00
3:15 PM,66.9,64.2,91,30.09,10.0,ESE,8.1,-,N/A,,Overcast,110,2013-07-30 20:15:00
3:35 PM,67.1,63.9,89,30.08,10.0,East,9.2,-,N/A,,Overcast,100,2013-07-30 20:35:00
3:55 PM,67.1,63.5,88,30.08,10.0,ESE,10.4,-,N/A,,Overcast,110,2013-07-30 20:55:00
4:15 PM,66.6,63.7,90,30.08,2.5,ESE,9.2,-,N/A,,Overcast,120,2013-07-30 21:15:00
4:35 PM,65.8,63.1,91,30.08,3.0,SE,10.4,-,N/A,,Light Drizzle,130,2013-07-30 21:35:00
4:55 PM,65.8,63.5,92,30.08,3.0,ESE,6.9,-,N/A,,Overcast,110,2013-07-30 21:55:00
5:15 PM,66.2,64.0,93,30.08,2.5,East,8.1,-,N/A,,Overcast,100,2013-07-30 22:15:00
5:35 PM,66.4,64.4,93,30.08,3.0,ESE,5.8,-,N/A,,Overcast,110,2013-07-30 22:35:00
5:55 PM,66.2,64.4,94,30.08,2.0,ESE,8.1,-,0.01,,Drizzle,120,2013-07-30 22:55:00
6:15 PM,66.2,64.4,94,30.07,1.8,ESE,10.4,-,0.01,,Drizzle,110,2013-07-30 23:15:00
6:35 PM,65.7,63.7,93,30.07,2.0,ESE,11.5,-,0.01,,Overcast,120,2013-07-30 23:35:00
6:55 PM,65.7,63.7,93,30.07,2.5,ESE,8.1,-,0.01,,Overcast,120,2013-07-30 23:55:00
7:15 PM,65.7,63.9,94,30.07,2.0,SE,8.1,-,N/A,,Overcast,130,2013-07-31 00:15:00
7:35 PM,65.7,63.9,94,30.07,3.0,SE,9.2,-,N/A,,Overcast,130,2013-07-31 00:35:00
7:55 PM,65.7,63.9,94,30.07,5.0,ESE,9.2,-,0.01,,Overcast,120,2013-07-31 00:55:00
8:15 PM,65.5,63.5,93,30.07,7.0,ESE,9.2,-,N/A,,Overcast,120,2013-07-31 01:15:00
8:35 PM,65.7,63.7,93,30.07,3.0,ESE,5.8,-,N/A,,Overcast,110,2013-07-31 01:35:00
8:55 PM,65.3,63.5,94,30.07,2.0,East,4.6,-,N/A,,Overcast,90,2013-07-31 01:55:00
9:15 PM,65.5,63.9,94,30.07,2.0,East,6.9,-,N/A,,Overcast,90,2013-07-31 02:15:00
9:35 PM,65.3,63.9,95,30.07,2.0,East,5.8,-,N/A,,Overcast,100,2013-07-31 02:35:00
9:55 PM,65.3,63.9,95,30.07,2.0,East,5.8,-,N/A,,Overcast,100,2013-07-31 02:55:00
10:15 PM,65.5,64.0,95,30.07,2.0,ESE,8.1,-,N/A,,Overcast,110,2013-07-31 03:15:00
10:35 PM,65.7,64.4,96,30.07,2.0,ESE,6.9,-,N/A,,Overcast,110,2013-07-31 03:35:00
10:55 PM,65.7,64.4,96,30.07,2.5,ESE,4.6,-,N/A,,Overcast,110,2013-07-31 03:55:00
11:15 PM,65.7,64.4,96,30.07,2.0,ESE,5.8,-,N/A,,Overcast,110,2013-07-31 04:15:00
11:35 PM,65.7,64.4,96,30.06,2.0,ESE,4.6,-,0.04,Rain,Rain,110,2013-07-31 04:35:00
11:55 PM,65.7,64.4,96,30.06,2.0,ESE,4.6,-,0.04,,Overcast,110,2013-07-31 04:55:00